Find Starlink 30921

NORAD ID: 58383 Int'l Des: 2023-178 Owner: SPXS Country: US Constellation: starlink operational
LEOCIRCULAR

当前视图

正在加载3D地球...

About Starlink 30921

Starlink 30921 (NORAD 58383) is a starlink constellation satellite (v2 mini) launched Nov 20, 2023 by SPXS of US. It operates in LEO, CIRCULAR orbit with a mass of 730.00 kg.

即将过境

Passes for default location (London). Set your location on the main map for personalized predictions.

高度历史

Loading altitude history...

两行轨道根数

1 58383U 23178K 26235.59138548 .00000020 00000-0 11724-4 0 9990
2 58383 53.1574 302.3737 0000845 186.4030 173.6962 15.34393228155474
Epoch: Aug 23, 2026 • Age: 14 hours

当前状态

高度 477.7 km
远地点 / 近地点 N/A
速度 7.63 km/s
星下点 -43.90°S, 138.62°W
发射日期 Nov 20, 2023
运行时间 2.7 years
类型 internet

技术详情

分类 Payload
质量 730.00 kg
干质量 700.00 kg
总质量 730.00 kg
长度 0.30 m
直径 4.10 m
跨度 29.00 m
形状 Box + pan
制造商 SPXS
平台类型 Starlink V2M
阶段状态 In Orbit
所有者/国家 SPXS/US

Most Searched